Regional Weather Roundup
Issued by NWS

Home | Current Version | Previous Version | Text Only | Print | Product List | Glossary On
Versions: 1 2 3 4 5 6 7 8 9 10 11 12 13 14 15 16 17 18 19 20 21 22 23 24 25 26 27 28 29 30 31 32 33 34 35 36 37 38 39 40 41 42 43 44 45 46 47 48 49 50
000
ASUS43 KLMK 211310
RWRKY
KENTUCKY REGIONAL WEATHER ROUNDUP
NATIONAL WEATHER SERVICE LOUISVILLE KY
900 AM EDT THU AUG 21 2014

NOTE "FAIR" INDICATES FEW OR NO CLOUDS BELOW 12,000 FEET
WITH NO SIGNIFICANT WEATHER AND/OR OBSTRUCTIONS TO VISIBILITY.

KYZ001>023-026-027-061>063-070>075-211400-
WESTERN AND SOUTH CENTRAL KENTUCKY

CITY           SKY/WX    TMP DP  RH WIND       PRES   REMARKS
PADUCAH        SUNNY     82  73  74 SW7       30.05R
HENDERSON      MOSUNNY   77  72  83 SW9       30.03R
OWENSBORO      MOSUNNY   74  66  75 S8        30.06R
HOPKINSVILLE   SUNNY     76  76 100 SW8       30.09R
BOWLING GREEN  MOSUNNY   73  69  87 SW7       30.09R
GLASGOW        PTSUNNY   71  70  97 CALM      30.11R
$$

KYZ024-025-028>034-038-045-046-053-211400-
NORTH CENTRAL KENTUCKY

CITY           SKY/WX    TMP DP  RH WIND       PRES   REMARKS
LOUISVILLE/SDF CLOUDY    74  70  87 S6        30.05R
LOUISVILLE/LOU MOSUNNY   74  69  85 S6        30.05S
FORT KNOX      MOSUNNY   73  73 100 S8        30.06R
$$

KYZ035>037-039>044-047>052-055>060-089>105-211400-
NORTHEAST KENTUCKY

CITY           SKY/WX    TMP DP  RH WIND       PRES   REMARKS
LEXINGTON      MOSUNNY   74  68  81 S5        30.10R
COVINGTON      PTSUNNY   73  70  90 CALM      30.07S
FRANKFORT      MOSUNNY   73  68  84 S7        30.08R
$$

KYZ054-064>069-076>088-106>120-211400-
SOUTHEAST KENTUCKY

CITY           SKY/WX    TMP DP  RH WIND       PRES   REMARKS
JACKSON        MOSUNNY   69  65  86 VRB3      30.14R
LONDON         MOSUNNY   72  65  78 S6        30.14R
SOMERSET       PTSUNNY   70  68  94 CALM      30.14R
MIDDLESBORO    FOG       65  65 100 CALM      30.18R VSB 1/2
MONTICELLO     MOSUNNY   73  69  87 CALM      30.14R
$$




USA.gov is the U.S. government's official web portal to all federal, state and local government web resources and services.